Quincy, IL

10:17 PM CST on November 17, 2019 (GMT -0600)
Quincy Regional-Baldwin

Weather History for KUIN - October, 2019

Change the Weather History Date:

Wednesday, October 16, 2019

  Actual Average Record
Temperature  
Mean Temperature 46 °F 55 °F  
Max Temperature 53 °F 65 °F 88 °F (1950)
Min Temperature 40 °F 44 °F 29 °F (2002)
Degree Days  
Heating Degree Days 18 11  
Month to date heating degree days 136 139  
Since 1 July heating degree days 140 226  
Cooling Degree Days 0 0  
Month to date cooling degree days 28 14  
Year to date cooling degree days 1346 1090  
Moisture  
Dew Point 36 °F    
Average Humidity 69    
Maximum Humidity 89    
Minimum Humidity 50    
Precipitation  
Precipitation 0.00 in 0.09 in 1.28 in (1989)
Month to date precipitation 1.21 1.57  
Year to date precipitation 37.30 30.62  
Sea Level Pressure  
Sea Level Pressure 30.08 in    
Wind  
Wind Speed 11 mph ()    
Max Wind Speed 22 mph    
Max Gust Speed 29 mph    
Visibility 9.9 miles    
Events      
T = Trace of Precipitation, MM = Missing Value Source: Averaged Metar Reports

Daily Weather History Graph

Daily Weather History Graph

Search for Another Location

Airport or City:

Astronomy

Oct. 16, 2019 Rise Set
Actual Time 7:16 AM CDT 6:24 PM CDT
Civil Twilight 6:48 AM CDT 6:51 PM CDT
Nautical Twilight 6:17 AM CDT 7:22 PM CDT
Astronomical Twilight 5:45 AM CDT 7:53 PM CDT
Moon 8:17 PM CDT (10/16) 9:46 AM CDT (10/16)
Length of Visible Light 12h 02m
Length of Day
11h 08m
Waning Gibbous, 92% of the Moon is Illuminated
Oct 16
Waning Gibbous
Oct 21
Last Quarter
Oct 27
New
Nov 4
First Quarter
Nov 12
Full

Hourly Weather History & Observations

Time (CDT) Temp. Windchill Dew Point Humidity Pressure Visibility Wind Dir Wind Speed Gust Speed Precip Events Conditions
12:54 AM 44.1 °F 38.1 °F 35.1 °F 71% 30.01 in 10.0 mi WNW 11.5 mph - N/A   Clear
1:54 AM 44.1 °F 38.1 °F 35.1 °F 71% 30.02 in 10.0 mi WNW 11.5 mph - N/A   Clear
2:54 AM 43.0 °F 36.0 °F 35.1 °F 74% 30.02 in 10.0 mi NW 13.8 mph - N/A   Clear
3:54 AM 42.1 °F 35.2 °F 36.0 °F 79% 30.04 in 10.0 mi NW 12.7 mph - N/A   Clear
4:54 AM 41.0 °F 34.7 °F 36.0 °F 82% 30.04 in 10.0 mi NW 10.4 mph - N/A   Clear
5:54 AM 41.0 °F 33.9 °F 36.0 °F 82% 30.05 in 10.0 mi NW 12.7 mph - N/A   Clear
6:54 AM 43.0 °F 36.4 °F 37.0 °F 80% 30.07 in 10.0 mi NW 12.7 mph - N/A   Overcast
7:54 AM 44.1 °F 37.4 °F 37.0 °F 76% 30.07 in 10.0 mi NW 13.8 mph - N/A   Overcast
8:27 AM 44.1 °F 38.1 °F 37.0 °F 76% 30.07 in 10.0 mi NW 11.5 mph - N/A   Overcast
8:54 AM 45.0 °F 38.2 °F 37.0 °F 74% 30.09 in 10.0 mi NW 15.0 mph - N/A   Overcast
9:54 AM 46.9 °F - 35.1 °F 63% 30.10 in 10.0 mi NNW 17.3 mph 28.8 mph N/A   Overcast
10:54 AM 46.9 °F - 36.0 °F 66% 30.11 in 10.0 mi NNW 17.3 mph 27.6 mph N/A   Overcast
11:20 AM 48.9 °F - 34.0 °F 56% 30.11 in 10.0 mi NW 19.6 mph 25.3 mph N/A   Overcast
11:54 AM 50.0 °F - 35.1 °F 57% 30.12 in 10.0 mi NW 18.4 mph 25.3 mph N/A   Mostly Cloudy
12:54 PM 53.1 °F - 35.1 °F 50% 30.11 in 10.0 mi NW 20.7 mph - N/A   Mostly Cloudy
1:54 PM 51.1 °F - 35.1 °F 54% 30.10 in 10.0 mi NNW 16.1 mph - N/A   Overcast
2:54 PM 51.1 °F - 35.1 °F 54% 30.11 in 10.0 mi NW 13.8 mph 24.2 mph N/A   Overcast
3:54 PM 51.1 °F - 36.0 °F 56% 30.10 in 10.0 mi NW 13.8 mph - N/A   Overcast
4:54 PM 51.1 °F - 36.0 °F 56% 30.10 in 10.0 mi NW 9.2 mph - N/A   Overcast
5:54 PM 50.0 °F - 37.0 °F 61% 30.10 in 8.0 mi NW 5.8 mph - N/A   Overcast
6:54 PM 48.9 °F - 37.0 °F 64% 30.10 in 10.0 mi NW 5.8 mph - N/A   Overcast
8:54 PM 46.9 °F - 37.9 °F 71% 30.10 in 10.0 mi NNW 3.5 mph - N/A   Overcast
9:54 PM 45.0 °F 43.5 °F 37.9 °F 76% 30.10 in 10.0 mi NNW 3.5 mph - N/A   Overcast
10:54 PM 41.0 °F 39.0 °F 37.0 °F 86% 30.10 in 10.0 mi WSW 3.5 mph - N/A   Clear
11:54 PM 41.0 °F - 37.9 °F 89% 30.11 in 10.0 mi Calm Calm - N/A   Clear